STARLINK-34236

Last updated on Sat Jul 19 2025 00:02:08 GMT+0000 (Coordinated Universal Time)

1 64743U 25144V 25199.62560657 -.00436504 00000+0 -34550-2 0 9995 2 64743 53.1578 191.9447 0000381 210.6664 149.4333 15.71915754 3822
UTC large
Height (km)
Speed (km/s)
/
Latitude / Longitude
Inclination (degrees)
Orbital Period (minutes)
Azimuth
Elevation
Range (km)
Doppler Factor

Next 0 passes for location: London (51.5072 / 0.1276)

Sorry there are no passes over London.